[[{"header":{"parameterUnit":"m.s-1","parameterCategory":1,"la1":30.2991,"la2":30.254,"lo1":-89.0895,"lo2":-89.0444,"dy":0.0017,"dx":0.0017,"nx":28,"ny":28,"refTime":"2024-02-01T03:00:00:Z","depth":0,"parameterNumber":2,"parameterNumberName":"U-component_of_WINDS"},"data":[0,0,0,0,0,0,0,0,0,0,0,0,0,0,0,0,0,0,0,0,0,0,0,0,0,0,0,0,0,0,0,0,0,0,0,0,0,0,0,0,0,0,0,0,0,0,0,0,0,0,0,0,0,0,0,0,0,0,-0.2884,-0.2883,0,-0.285,-0.285,-0.2849,-0.2836,-0.2836,-0.2836,-0.2836,-0.2801,-0.28,-0.2799,0,0,0,0,0,0,0,0,0,0,0,0,0,-0.2933,-0.2932,-0.2884,-0.2883,-0.2883,-0.285,-0.285,-0.2849,-0.2836,-0.2836,-0.2836,-0.2836,-0.2801,-0.28,-0.2799,0,0,0,0,0,0,0,0,0,0,0,0,0,-0.2907,-0.2932,-0.2884,-0.2872,-0.2871,-0.285,-0.285,-0.2849,-0.2836,-0.2836,-0.2836,-0.2836,-0.2802,-0.28,-0.2799,-0.2787,0,0,-0.2794,-0.2793,0,0,0,0,0,0,0,0,-0.2908,-0.2905,-0.2875,-0.2873,-0.2872,-0.2847,-0.2854,-0.2828,-0.2836,-0.2849,-0.2836,-0.2836,-0.2816,-0.2813,-0.2807,-0.2785,-0.2783,-0.2794,-0.2793,-0.2792,-0.2792,0,0,0,0,0,0,0,-0.291,-0.2906,-0.287,-0.2874,-0.2872,-0.2868,-0.2864,-0.2849,-0.2832,-0.2848,-0.2847,-0.2843,-0.2815,-0.2808,-0.2806,-0.2783,-0.2794,-0.2792,-0.2792,-0.2791,-0.2745,-0.2745,0,0,0,0,0,0,-0.2914,-0.2908,-0.2872,-0.2869,-0.2891,-0.2867,-0.2863,-0.2855,-0.2833,-0.2829,-0.2843,-0.2843,-0.2811,-0.2808,-0.2805,-0.2786,-0.2792,-0.2791,-0.279,-0.2745,-0.2745,-0.2744,0,0,0,0,0,0,-0.2915,-0.2911,-0.2873,-0.2888,-0.2883,-0.2866,-0.2857,-0.2854,-0.2847,-0.2829,-0.2826,-0.2839,-0.2811,-0.2807,-0.279,-0.2785,-0.279,-0.2789,-0.2745,-0.2745,-0.2745,-0.2751,0,0,0,0,0,0,-0.2917,-0.2911,-0.2908,-0.2888,-0.2882,-0.286,-0.2857,-0.2854,-0.2845,-0.2844,-0.2824,-0.2821,-0.2811,-0.2793,-0.2789,-0.2783,-0.2788,-0.2746,-0.2745,-0.2745,-0.2751,-0.2751,-0.2751,0,0,0,0,0,-0.2918,-0.2912,-0.2908,-0.2903,-0.2878,-0.286,-0.2857,-0.2845,-0.2845,-0.284,-0.2827,-0.2822,-0.2786,-0.2791,-0.2787,-0.278,-0.2746,-0.2745,-0.2745,-0.2751,-0.2751,-0.2751,0,0,0,0,0,0,-0.2931,-0.2909,-0.2904,-0.2891,-0.2878,-0.2858,-0.2852,-0.2845,-0.2831,-0.2831,-0.2817,-0.2812,-0.2796,-0.2787,-0.2793,-0.2765,-0.2766,-0.2764,-0.2772,-0.2772,-0.2771,-0.2773,-0.2786,0,0,0,0,0,-0.2933,-0.2921,-0.2902,-0.2892,-0.2885,-0.287,-0.2862,-0.2854,-0.2839,-0.2833,-0.2819,-0.2805,-0.2789,-0.278,-0.2766,-0.275,-0.2743,-0.2743,-0.2742,-0.2742,-0.2741,-0.2728,-0.2726,-0.2742,-0.2742,-0.2742,0,0,-0.2936,-0.2922,-0.2916,-0.2894,-0.2883,-0.2869,-0.2865,-0.2852,-0.2842,-0.2831,-0.2814,-0.2803,-0.2785,-0.2768,-0.276,-0.2759,-0.2735,-0.2741,-0.2741,-0.274,-0.2727,-0.2725,-0.2724,-0.2742,-0.2742,-0.2742,0,0,-0.2933,-0.2923,-0.2912,-0.29,-0.2882,-0.2871,-0.2868,-0.2849,-0.2841,-0.2823,-0.2814,-0.28,-0.2776,-0.2763,-0.2753,-0.2741,-0.2735,-0.2737,-0.2735,-0.2723,-0.2721,-0.272,-0.2713,-0.2711,-0.2736,-0.2736,-0.2736,0,-0.2939,-0.292,-0.2907,-0.2894,-0.2883,-0.2872,-0.286,-0.2848,-0.2827,-0.2819,-0.2819,-0.2785,-0.2773,-0.275,-0.2747,-0.274,-0.2735,-0.2739,-0.2723,-0.2721,-0.272,-0.2713,-0.2711,-0.2736,-0.2736,-0.2736,-0.2736,0,-0.2926,-0.2912,-0.2906,-0.2884,-0.2873,-0.286,-0.2844,-0.2834,-0.2826,-0.2814,-0.2794,-0.2778,-0.2759,-0.2753,-0.2746,-0.2728,-0.2728,-0.2726,-0.2726,-0.2719,-0.2712,-0.271,-0.2736,-0.2736,-0.2736,-0.2736,0,0,-0.2933,-0.2902,-0.29,-0.2888,-0.2866,-0.2854,-0.284,-0.282,-0.281,-0.2795,-0.278,-0.2758,-0.2754,-0.2743,-0.2734,-0.2723,-0.2711,-0.2721,-0.272,-0.2718,-0.2687,-0.2688,-0.2685,-0.2706,-0.2706,-0.2705,-0.2687,0,-0.2926,-0.29,-0.2887,-0.2866,-0.2851,-0.2838,-0.2825,-0.2809,-0.2797,-0.2781,-0.2768,-0.2751,-0.2749,-0.2741,-0.273,-0.2715,-0.2704,-0.2716,-0.2691,-0.269,-0.2694,-0.2682,-0.2684,-0.2668,-0.2685,-0.2685,-0.2684,0,-0.2916,-0.2899,-0.2877,-0.2853,-0.2846,-0.2834,-0.2813,-0.28,-0.2779,-0.2771,-0.2756,-0.2746,-0.2728,-0.2729,-0.2702,-0.271,-0.2698,-0.2689,-0.2688,-0.2684,-0.2686,-0.2676,-0.2663,-0.266,-0.2681,-0.2681,-0.2681,0,-0.2921,-0.2893,-0.2874,-0.2865,-0.2838,-0.2829,-0.2817,-0.2797,-0.2785,-0.2766,-0.2757,-0.2737,-0.2725,-0.2708,-0.2692,-0.2695,-0.2664,-0.2665,-0.2655,-0.2655,-0.2649,-0.2649,-0.2632,-0.2644,-0.2644,-0.2644,-0.2644,0,-0.2914,-0.29,-0.2875,-0.2864,-0.2847,-0.283,-0.2813,-0.28,-0.2782,-0.2766,-0.2754,-0.2739,-0.2719,-0.2701,-0.2688,-0.2665,-0.266,-0.2651,-0.2648,-0.2651,-0.2652,-0.2643,-0.2643,-0.2644,-0.2644,-0.2644,-0.2644,0,-0.2917,-0.29,-0.2879,-0.2853,-0.2846,-0.2834,-0.2811,-0.2799,-0.2785,-0.2764,-0.2759,-0.2737,-0.2714,-0.2696,-0.2667,-0.2658,-0.2633,-0.2631,-0.264,-0.2638,-0.2627,-0.2628,-0.2602,-0.2596,-0.2615,-0.2615,-0.2614,0,-0.2913,-0.2902,-0.2874,-0.2863,-0.285,-0.2832,-0.2819,-0.2801,-0.2788,-0.2762,-0.2751,-0.2728,-0.2708,-0.2672,-0.2653,-0.2629,-0.2624,-0.2617,-0.2621,-0.2623,-0.2621,-0.2621,-0.2618,-0.2616,-0.2616,-0.2616,-0.2616,0,-0.2908,-0.2899,-0.2881,-0.2859,-0.2843,-0.2825,-0.2806,-0.2797,-0.2775,-0.276,-0.2737,-0.2721,-0.269,-0.2666,-0.264,-0.2625,-0.2615,-0.2614,-0.261,-0.2613,-0.2618,-0.2613,-0.2637,-0.2615,-0.2615,-0.2615,-0.2615,-0.2615,-0.2906,-0.2894,-0.2871,-0.285,-0.2834,-0.2816,-0.2801,-0.2784,-0.2765,-0.2738,-0.2728,-0.2703,-0.2679,-0.2643,-0.2628,-0.2607,-0.2606,-0.2601,-0.2599,-0.2598,-0.2596,-0.2623,-0.2602,-0.2602,-0.2602,-0.2602,-0.2602,0,-0.2898,-0.2882,-0.2863,-0.2836,-0.2819,-0.2811,-0.2789,-0.2774,-0.2753,-0.2731,-0.2711,-0.2682,-0.2657,-0.2635,-0.2608,-0.2595,-0.259,-0.2588,-0.2589,-0.2584,-0.26,-0.2605,-0.2593,-0.2593,-0.2593,-0.2593,-0.2593,-0.2593,-0.2892,-0.287,-0.2858,-0.2826,-0.281,-0.2785,-0.2772,-0.2754,-0.2737,-0.2705,-0.2684,-0.2669,-0.2646,-0.2617,-0.2593,-0.2586,-0.2576,-0.2576,-0.2568,-0.2583,-0.2584,-0.2585,-0.259,-0.2574,-0.2574,-0.2553,-0.2553,-0.2553]},{"header":{"parameterUnit":"m.s-1","parameterCategory":1,"la1":30.2991,"la2":30.254,"lo1":-89.0895,"lo2":-89.0444,"dy":0.0017,"dx":0.0017,"nx":28,"ny":28,"refTime":"2024-02-01T03:00:00:Z","depth":0,"parameterNumber":3,"parameterNumberName":"V-component_of_WINDS"},"data":[0,0,0,0,0,0,0,0,0,0,0,0,0,0,0,0,0,0,0,0,0,0,0,0,0,0,0,0,0,0,0,0,0,0,0,0,0,0,0,0,0,0,0,0,0,0,0,0,0,0,0,0,0,0,0,0,0,0,-2.7616,-2.7616,0,-2.764,-2.764,-2.764,-2.767,-2.7671,-2.7671,-2.7672,-2.7694,-2.7694,-2.7694,0,0,0,0,0,0,0,0,0,0,0,0,0,-2.7594,-2.7594,-2.7616,-2.7616,-2.7617,-2.764,-2.764,-2.764,-2.767,-2.7671,-2.7672,-2.7672,-2.7694,-2.7694,-2.7694,0,0,0,0,0,0,0,0,0,0,0,0,0,-2.7609,-2.7594,-2.7616,-2.7635,-2.7636,-2.764,-2.764,-2.764,-2.767,-2.7671,-2.7672,-2.7672,-2.7694,-2.7694,-2.7694,-2.768,0,0,-2.7694,-2.7694,0,0,0,0,0,0,0,0,-2.7608,-2.761,-2.7631,-2.7633,-2.7635,-2.7653,-2.764,-2.7654,-2.767,-2.7657,-2.7672,-2.7673,-2.7679,-2.7681,-2.7683,-2.7681,-2.7682,-2.7694,-2.7695,-2.7695,-2.7695,0,0,0,0,0,0,0,-2.7607,-2.7609,-2.7625,-2.7632,-2.7634,-2.7641,-2.7644,-2.7643,-2.7664,-2.7658,-2.7661,-2.7663,-2.768,-2.7683,-2.7684,-2.7682,-2.7694,-2.7695,-2.7695,-2.7695,-2.7667,-2.7667,0,0,0,0,0,0,-2.7604,-2.7608,-2.7625,-2.7626,-2.7623,-2.764,-2.7644,-2.7647,-2.7664,-2.7667,-2.7663,-2.7665,-2.7683,-2.7684,-2.7685,-2.7668,-2.7695,-2.7695,-2.7695,-2.7668,-2.7667,-2.7666,0,0,0,0,0,0,-2.7603,-2.7605,-2.7624,-2.7618,-2.7621,-2.764,-2.7643,-2.7647,-2.7649,-2.7667,-2.7671,-2.7662,-2.7683,-2.7685,-2.7681,-2.7669,-2.7695,-2.7695,-2.7669,-2.7668,-2.7667,-2.7635,0,0,0,0,0,0,-2.7602,-2.7604,-2.76,-2.7617,-2.7621,-2.762,-2.7642,-2.7647,-2.765,-2.7653,-2.7667,-2.767,-2.7684,-2.768,-2.7681,-2.767,-2.7695,-2.767,-2.7669,-2.7667,-2.7637,-2.7633,-2.7629,0,0,0,0,0,-2.7601,-2.759,-2.76,-2.7602,-2.7616,-2.7619,-2.7621,-2.7638,-2.7649,-2.7644,-2.7655,-2.767,-2.7671,-2.768,-2.7681,-2.7669,-2.7671,-2.7669,-2.7667,-2.7639,-2.7634,-2.7629,0,0,0,0,0,0,-2.7571,-2.7593,-2.7604,-2.7598,-2.7607,-2.7624,-2.7619,-2.7632,-2.7637,-2.7639,-2.7659,-2.7662,-2.7655,-2.7662,-2.7672,-2.7656,-2.7673,-2.7671,-2.7651,-2.7646,-2.7642,-2.764,-2.7695,0,0,0,0,0,-2.7564,-2.7565,-2.7584,-2.7577,-2.7581,-2.7599,-2.7601,-2.7613,-2.7622,-2.7626,-2.7637,-2.7644,-2.7646,-2.7647,-2.765,-2.7639,-2.7641,-2.7632,-2.7628,-2.7624,-2.7622,-2.7614,-2.7609,-2.766,-2.766,-2.766,0,0,-2.7548,-2.7561,-2.756,-2.7571,-2.7579,-2.7579,-2.7602,-2.7601,-2.7601,-2.7626,-2.7622,-2.763,-2.764,-2.7632,-2.7629,-2.7637,-2.7608,-2.7622,-2.7619,-2.7618,-2.7611,-2.7607,-2.7602,-2.7659,-2.7659,-2.7659,0,0,-2.752,-2.753,-2.7525,-2.7532,-2.7544,-2.7556,-2.7554,-2.757,-2.7576,-2.7573,-2.7591,-2.7591,-2.7594,-2.76,-2.7603,-2.7575,-2.7588,-2.7576,-2.7554,-2.7546,-2.7542,-2.7539,-2.7526,-2.7522,-2.7574,-2.7574,-2.7574,0,-2.7499,-2.75,-2.752,-2.7518,-2.7521,-2.7544,-2.7537,-2.7544,-2.7555,-2.7556,-2.7567,-2.757,-2.7579,-2.7571,-2.7564,-2.7567,-2.7564,-2.7573,-2.7541,-2.7538,-2.7535,-2.7523,-2.7519,-2.7572,-2.7572,-2.7572,-2.7573,0,-2.7473,-2.7473,-2.7467,-2.7478,-2.7481,-2.7477,-2.7494,-2.7495,-2.7506,-2.7517,-2.7512,-2.7523,-2.7527,-2.7527,-2.7539,-2.752,-2.7525,-2.7538,-2.7555,-2.7528,-2.7517,-2.7513,-2.757,-2.757,-2.7571,-2.7571,0,0,-2.7425,-2.7446,-2.7443,-2.7448,-2.7462,-2.7462,-2.7458,-2.7463,-2.7462,-2.7469,-2.7465,-2.7467,-2.7479,-2.7482,-2.7495,-2.7488,-2.7462,-2.7502,-2.7502,-2.7492,-2.7439,-2.7427,-2.7421,-2.7472,-2.7471,-2.747,-2.7437,0,-2.7397,-2.7392,-2.7409,-2.7398,-2.7398,-2.7419,-2.7416,-2.7423,-2.7433,-2.7432,-2.7443,-2.7443,-2.746,-2.7462,-2.7457,-2.7466,-2.7451,-2.7469,-2.7465,-2.7465,-2.7459,-2.7416,-2.7404,-2.7372,-2.7433,-2.7433,-2.7432,0,-2.7364,-2.7369,-2.7359,-2.7372,-2.7372,-2.7369,-2.7373,-2.7374,-2.7382,-2.7389,-2.7393,-2.7407,-2.7402,-2.742,-2.7413,-2.7424,-2.7424,-2.7428,-2.7428,-2.7425,-2.7445,-2.741,-2.7362,-2.7356,-2.7426,-2.7427,-2.7427,0,-2.7327,-2.7332,-2.7325,-2.7329,-2.7345,-2.7341,-2.7347,-2.7357,-2.7358,-2.7362,-2.7362,-2.7366,-2.7367,-2.7368,-2.7382,-2.7395,-2.7372,-2.7392,-2.7375,-2.7375,-2.7367,-2.7367,-2.7316,-2.7372,-2.7372,-2.7372,-2.7372,0,-2.7292,-2.7284,-2.7308,-2.7304,-2.7295,-2.7315,-2.7305,-2.7313,-2.7321,-2.7317,-2.7337,-2.7333,-2.7354,-2.7352,-2.7363,-2.7353,-2.7354,-2.7358,-2.736,-2.7355,-2.7354,-2.7352,-2.7354,-2.7371,-2.7371,-2.7371,-2.7372,0,-2.7248,-2.7265,-2.7258,-2.7274,-2.7278,-2.727,-2.7283,-2.7278,-2.7289,-2.7285,-2.7285,-2.7301,-2.7299,-2.7314,-2.7316,-2.7323,-2.7307,-2.7315,-2.7304,-2.7305,-2.7286,-2.7287,-2.723,-2.7222,-2.7286,-2.7285,-2.7285,0,-2.7224,-2.7218,-2.7233,-2.7232,-2.7238,-2.7237,-2.7238,-2.7257,-2.7256,-2.7265,-2.7259,-2.7259,-2.726,-2.7256,-2.7267,-2.7267,-2.7273,-2.7254,-2.7274,-2.7267,-2.7269,-2.7268,-2.7266,-2.7249,-2.7248,-2.7247,-2.7247,0,-2.7178,-2.7186,-2.7188,-2.7191,-2.7192,-2.7195,-2.72,-2.7198,-2.7218,-2.7217,-2.7215,-2.7216,-2.7217,-2.7216,-2.7218,-2.7223,-2.7237,-2.7241,-2.7236,-2.7228,-2.7221,-2.7221,-2.7289,-2.7241,-2.7242,-2.7242,-2.7242,-2.7243,-2.7142,-2.7136,-2.7145,-2.7145,-2.7151,-2.7154,-2.715,-2.7161,-2.716,-2.7162,-2.7174,-2.7169,-2.7176,-2.7181,-2.7185,-2.7181,-2.719,-2.7184,-2.7182,-2.718,-2.7175,-2.7224,-2.7182,-2.7182,-2.7182,-2.7182,-2.7182,0,-2.7094,-2.7101,-2.7101,-2.7107,-2.7106,-2.7121,-2.7126,-2.7124,-2.712,-2.7126,-2.7126,-2.7123,-2.7122,-2.7133,-2.7132,-2.7127,-2.7133,-2.7126,-2.7125,-2.7125,-2.7168,-2.7171,-2.7121,-2.7121,-2.7121,-2.7121,-2.7121,-2.7121,-2.7069,-2.706,-2.7069,-2.7062,-2.7069,-2.7065,-2.7067,-2.7069,-2.7074,-2.7069,-2.7068,-2.7076,-2.7083,-2.7083,-2.7081,-2.7085,-2.7082,-2.7072,-2.7077,-2.7116,-2.7122,-2.7128,-2.713,-2.7072,-2.7072,-2.7033,-2.7033,-2.7033]}]]